Weather History for Buckland, AK

Change the Weather History Date:

Saturday, January 19, 2013

  Actual Average (PASK) Record (PASK)
Temperature  
Mean Temperature -14 °F -  
Max Temperature 8 °F 1 °F 32 °F (2001)
Min Temperature -36 °F -7 °F -43 °F (1999)
Degree Days  
Heating Degree Days 79    
Moisture  
Dew Point -1 °F    
Average Humidity 75    
Maximum Humidity 100    
Minimum Humidity 66    
Precipitation  
Precipitation 0.00 in - - ()
Sea Level Pressure  
Sea Level Pressure 30.32 in    
Wind  
Wind Speed 5 mph (ESE)    
Max Wind Speed 28 mph    
Max Gust Speed 37 mph    
Visibility 10 miles    
Events      
Averages and records for this station are not official NWS values.
T = Trace of Precipitation, MM = Missing Value Source: NWS Daily Summary

Daily Weather History Graph

Daily Weather History Graph

Search for Another Location

Airport:

Trip Planner

Search our weather history database for the weather conditions in past years. The results will help you decide how hot, cold, wet, or windy it might be!

Date:

Astronomy

Jan. 19, 2013 Rise Set
Actual Time 11:22 AM AKST 4:29 PM AKST
Civil Twilight 10:09 AM AKST 5:42 PM AKST
Nautical Twilight 9:00 AM AKST 6:51 PM AKST
Astronomical Twilight 7:59 AM AKST 7:52 PM AKST
Moon 11:36 AM AKST (1/19) 4:27 AM AKST (1/19)
Length of Visible Light 7h 33m
Length of Day
5h 06m
First Quarter, 58% of the Moon is Illuminated
Jan 19
First Quarter
Jan 26
Full
Feb 3
Last Quarter
Feb 9
New
Feb 17
First Quarter

Hourly Weather History & Observations

Time (AKST) Temp. Windchill Dew Point Humidity Pressure Visibility Wind Dir Wind Speed Gust Speed Precip Events Conditions
12:16 AM -36.4 °F -54.8 °F - N/A% 30.56 in 10.0 mi SE 5.8 mph - N/A   Unknown
12:36 AM -34.6 °F - - N/A% 30.56 in 10.0 mi Calm Calm - N/A   Unknown
12:56 AM -34.6 °F - - N/A% 30.56 in 10.0 mi Calm Calm - N/A   Unknown
1:16 AM -36.4 °F - - N/A% 30.55 in 10.0 mi Calm Calm - N/A   Unknown
1:36 AM -36.4 °F - - N/A% 30.54 in 10.0 mi Calm Calm - N/A   Unknown
1:56 AM -34.6 °F - - N/A% 30.53 in 10.0 mi Calm Calm - N/A   Unknown
2:16 AM -34.6 °F - - N/A% 30.53 in 10.0 mi Calm Calm - N/A   Unknown
2:36 AM -36.4 °F - - N/A% 30.52 in 10.0 mi Calm Calm - N/A   Unknown
2:56 AM -34.6 °F - - N/A% 30.51 in 10.0 mi Calm Calm - N/A   Unknown
3:16 AM -34.6 °F - - N/A% 30.51 in 10.0 mi Calm Calm - N/A   Unknown
3:36 AM -34.6 °F - - N/A% 30.50 in 10.0 mi Calm Calm - N/A   Unknown
3:56 AM -32.8 °F - - N/A% 30.50 in 10.0 mi Calm Calm - N/A   Unknown
4:16 AM -32.8 °F - - N/A% 30.49 in 10.0 mi Calm Calm - N/A   Unknown
4:36 AM -32.8 °F - - N/A% 30.48 in 10.0 mi Calm Calm - N/A   Unknown
4:56 AM -32.8 °F - - N/A% 30.48 in 10.0 mi Calm Calm - N/A   Unknown
5:16 AM -32.8 °F - - N/A% 30.47 in 10.0 mi Calm Calm - N/A   Unknown
5:36 AM -34.6 °F - - N/A% 30.46 in 10.0 mi Calm Calm - N/A   Unknown
5:56 AM -32.8 °F - - N/A% 30.45 in 10.0 mi Calm Calm - N/A   Unknown
6:16 AM -34.6 °F - - N/A% 30.44 in 10.0 mi Calm Calm - N/A   Unknown
6:36 AM -34.6 °F - - N/A% 30.43 in 10.0 mi Calm Calm - N/A   Unknown
6:56 AM -34.6 °F - - N/A% 30.42 in 10.0 mi Calm Calm - N/A   Unknown
7:16 AM -34.6 °F - - N/A% 30.42 in 10.0 mi Calm Calm - N/A   Unknown
7:36 AM -32.8 °F - - N/A% 30.41 in 10.0 mi Calm Calm - N/A   Unknown
7:56 AM -34.6 °F - - N/A% 30.40 in 10.0 mi Calm Calm - N/A   Unknown
8:16 AM -32.8 °F - - N/A% 30.39 in 10.0 mi Calm Calm - N/A   Unknown
8:36 AM -32.8 °F - - N/A% 30.38 in 10.0 mi Calm Calm - N/A   Unknown
8:56 AM -29.2 °F - - N/A% 30.38 in 10.0 mi Calm Calm - N/A   Unknown
9:16 AM -29.2 °F - - N/A% 30.38 in 10.0 mi Calm Calm - N/A   Unknown
9:36 AM -29.2 °F - - N/A% 30.37 in 10.0 mi Calm Calm - N/A   Unknown
9:56 AM -29.2 °F - - N/A% 30.36 in 10.0 mi Calm Calm - N/A   Unknown
10:16 AM -29.2 °F - - N/A% 30.36 in 10.0 mi Calm Calm - N/A   Unknown
10:36 AM -29.2 °F - - N/A% 30.35 in 10.0 mi Calm Calm - N/A   Unknown
10:56 AM -27.4 °F - - N/A% 30.35 in 10.0 mi Calm Calm - N/A   Unknown
11:16 AM -27.4 °F - - N/A% 30.35 in 10.0 mi Calm Calm - N/A   Unknown
11:36 AM -25.6 °F - - N/A% 30.34 in 10.0 mi Calm Calm - N/A   Unknown
11:56 AM -25.6 °F - - N/A% 30.33 in 10.0 mi Calm Calm - N/A   Unknown
12:16 PM -20.2 °F - - N/A% 30.32 in 10.0 mi Calm Calm - N/A   Unknown
12:36 PM -22.0 °F - - N/A% 30.32 in 10.0 mi Calm Calm - N/A   Unknown
12:56 PM -7.6 °F -22.1 °F -13.0 °F 77% 30.31 in 10.0 mi ESE 6.9 mph - N/A   Unknown
1:16 PM -11.2 °F -29.0 °F - N/A% 30.31 in 10.0 mi South 9.2 mph - N/A   Unknown
1:36 PM -11.2 °F -27.8 °F -16.6 °F 77% 30.29 in 10.0 mi SSE 8.1 mph - N/A   Unknown
1:56 PM -7.6 °F -25.7 °F -9.4 °F 92% 30.28 in 10.0 mi SE 10.4 mph - N/A   Unknown
2:16 PM 3.2 °F -16.5 °F 3.2 °F 100% 30.27 in 10.0 mi ESE 17.3 mph - N/A   Unknown
2:36 PM 3.2 °F -13.9 °F -2.2 °F 78% 30.27 in 10.0 mi ESE 12.7 mph 18.4 mph N/A   Unknown
2:56 PM 3.2 °F -15.3 °F -5.8 °F 66% 30.25 in 10.0 mi ESE 15.0 mph 21.9 mph N/A   Unknown
3:16 PM 6.8 °F -10.7 °F -0.4 °F 72% 30.25 in 10.0 mi ESE 15.0 mph 23.0 mph N/A   Unknown
3:36 PM 6.8 °F -12.4 °F -0.4 °F 72% 30.24 in 10.0 mi ESE 18.4 mph 24.2 mph N/A   Unknown
3:56 PM 6.8 °F -11.3 °F -2.2 °F 67% 30.24 in 9.0 mi East 16.1 mph 21.9 mph N/A   Unknown
4:16 PM 6.8 °F -10.0 °F -0.4 °F 72% 30.23 in 10.0 mi East 13.8 mph 23.0 mph N/A   Unknown
4:36 PM 6.8 °F -12.4 °F 1.4 °F 79% 30.22 in 10.0 mi East 18.4 mph 23.0 mph N/A   Unknown
4:56 PM 6.8 °F -11.8 °F 1.4 °F 79% 30.21 in 10.0 mi East 17.3 mph 26.5 mph N/A   Unknown
5:16 PM 6.8 °F -11.8 °F 1.4 °F 79% 30.20 in 10.0 mi East 17.3 mph 23.0 mph N/A   Unknown
5:36 PM 6.8 °F -10.7 °F 1.4 °F 79% 30.19 in 9.0 mi ESE 15.0 mph 24.2 mph N/A   Unknown
5:56 PM 6.8 °F -10.0 °F 1.4 °F 79% 30.19 in 10.0 mi ESE 13.8 mph 24.2 mph N/A   Unknown
6:16 PM 8.6 °F -8.9 °F 1.4 °F 73% 30.18 in 10.0 mi ESE 16.1 mph 23.0 mph N/A   Unknown
6:36 PM 8.6 °F -9.5 °F 1.4 °F 73% 30.17 in 10.0 mi SE 17.3 mph 23.0 mph N/A   Unknown
6:56 PM 8.6 °F -8.3 °F 1.4 °F 73% 30.17 in 10.0 mi ESE 15.0 mph - N/A   Unknown
7:16 PM 8.6 °F -8.3 °F 1.4 °F 73% 30.17 in 10.0 mi ESE 15.0 mph 19.6 mph N/A   Unknown
7:36 PM 8.6 °F -7.0 °F 1.4 °F 73% 30.16 in 10.0 mi SE 12.7 mph 18.4 mph N/A   Unknown
7:56 PM 8.6 °F -8.9 °F 1.4 °F 73% 30.15 in 10.0 mi SE 16.1 mph - N/A   Unknown
8:16 PM 8.6 °F -10.0 °F 3.2 °F 79% 30.15 in 10.0 mi ESE 18.4 mph 21.9 mph N/A   Unknown
8:36 PM 8.6 °F -10.0 °F 1.4 °F 73% 30.14 in 10.0 mi ESE 18.4 mph 25.3 mph N/A   Unknown
8:56 PM 8.6 °F -11.0 °F 1.4 °F 73% 30.12 in 10.0 mi SE 20.7 mph 27.6 mph N/A   Unknown
9:16 PM 8.6 °F -11.4 °F 1.4 °F 73% 30.12 in 10.0 mi SE 21.9 mph 29.9 mph N/A   Unknown
9:36 PM 8.6 °F -11.4 °F 1.4 °F 73% 30.12 in 10.0 mi SE 21.9 mph 28.8 mph N/A   Unknown
9:56 PM 8.6 °F -13.4 °F 1.4 °F 73% 30.11 in 10.0 mi ESE 27.6 mph - N/A   Unknown
10:16 PM 8.6 °F -12.3 °F 1.4 °F 73% 30.10 in 9.0 mi ESE 24.2 mph 32.2 mph N/A   Unknown
10:36 PM 8.6 °F -11.0 °F 1.4 °F 73% 30.09 in 10.0 mi ESE 20.7 mph 31.1 mph N/A   Unknown
10:56 PM 8.6 °F -11.4 °F -0.4 °F 67% 30.09 in 10.0 mi ESE 21.9 mph 31.1 mph N/A   Unknown
11:16 PM 8.6 °F -10.5 °F -0.4 °F 67% 30.09 in 10.0 mi ESE 19.6 mph 26.5 mph N/A   Unknown
11:36 PM 8.6 °F -13.1 °F -0.4 °F 67% 30.08 in 10.0 mi SE 26.5 mph 32.2 mph N/A   Unknown
11:56 PM 8.6 °F -11.9 °F -0.4 °F 67% 30.07 in 10.0 mi SE 23.0 mph 36.8 mph N/A   Unknown